period_start,C,m1,H,J0,J1,J2,J3,J4,J5,JA,JB,JC,JD,JJ,JK,JN,#
2018-02-11 00:04:49,0.10,17.18,0.00,20.87,24.35,27.67,14.32,51.66,1025.40,2032.02,738.71,998.01,1138.98,599.99,605.57,59.09,0000 0000 0000 0000 000000
2018-02-11 00:09:51,0.15,17.19,0.00,20.88,24.35,27.67,14.27,51.61,1025.40,2032.01,738.02,998.00,1138.52,600.00,605.57,59.14,0000 0000 0000 0000 000000
2018-02-11 00:14:52,0.13,17.20,0.00,20.88,24.35,27.67,14.24,51.73,1025.39,2032.03,737.74,997.94,1138.01,600.01,605.50,59.19,0000 0000 0000 0000 000000
2018-02-11 00:19:53,0.18,17.21,0.00,20.87,24.35,27.67,14.18,51.63,1025.40,2032.01,737.03,997.44,1137.98,599.77,605.24,59.24,0000 0000 0000 0000 000000
2018-02-11 00:24:55,0.17,17.21,0.00,20.87,24.35,27.66,14.20,51.66,1025.38,2032.03,736.59,997.06,1137.89,599.44,604.98,59.29,0000 0000 0000 0000 000000
2018-02-11 00:29:56,0.11,17.22,0.00,20.86,24.34,27.66,14.20,51.66,1025.38,2032.03,736.01,997.00,1137.29,600.12,605.69,59.34,0000 0000 0000 0000 000000
2018-02-11 00:34:57,0.19,17.23,0.00,20.89,24.32,27.64,14.22,51.72,1025.28,2032.02,735.28,996.98,1137.02,599.88,605.18,59.39,0000 0000 0000 0000 000000
2018-02-11 00:39:59,0.12,17.24,0.00,20.89,24.32,27.66,14.27,51.67,1025.27,2032.03,734.78,996.79,1136.99,600.25,605.71,59.44,0000 0000 0000 0000 000000
2018-02-11 00:45:00,0.23,17.25,0.00,20.86,24.32,27.63,14.26,51.69,1025.18,2032.10,734.03,996.14,1136.91,600.16,605.59,59.50,0000 0000 0000 0000 000000
2018-02-11 00:50:01,0.26,17.26,0.00,20.86,24.32,27.63,14.25,51.77,1025.03,2032.22,733.32,996.01,1136.33,599.92,605.02,59.55,0000 0000 0000 0000 000000
2018-02-11 00:55:03,0.02,17.27,0.00,20.87,24.32,27.64,14.19,51.67,1025.04,2032.18,732.98,996.00,1136.01,600.15,605.68,59.60,0000 0000 0000 0000 000000
2018-02-11 01:00:04,0.21,12.66,0.00,20.87,24.33,27.63,12.82,45.81,1024.96,2034.00,1463.98,1561.88,1786.97,538.36,542.52,0.01,0000 0000 0000 0000 000002
2018-02-11 01:05:05,0.30,0.00,0.00,20.85,24.33,27.61,14.25,48.66,1024.93,2039.08,3469.54,3115.81,3575.33,600.00,605.30,0.02,0000 0000 0000 0000 000000
2018-02-11 01:10:06,0.29,0.00,0.00,20.86,24.32,27.62,14.25,48.70,1024.92,2039.05,3464.25,3112.89,3572.00,600.23,605.51,0.07,0000 0000 0000 0000 000000
2018-02-11 01:15:07,0.28,0.01,0.00,20.84,24.32,27.61,14.17,48.52,1024.92,2039.06,3459.90,3110.13,3568.61,599.74,605.05,0.12,0000 0000 0000 0000 000000
2018-02-11 01:20:09,0.25,0.02,0.00,20.84,24.30,27.61,14.18,48.36,1024.92,2039.07,3455.78,3107.35,3565.27,600.04,605.44,0.17,0000 0000 0000 0000 000000
2018-02-11 01:25:10,0.22,0.03,0.00,20.83,24.30,27.61,14.19,48.33,1024.92,2039.04,3451.82,3104.57,3561.87,599.87,605.21,0.22,0000 0000 0000 0000 000000
2018-02-11 01:30:11,0.19,0.04,0.00,20.84,24.30,27.61,14.19,48.24,1024.92,2039.04,3447.79,3101.83,3558.62,599.99,605.38,0.27,0000 0000 0000 0000 000000
2018-02-11 01:35:12,0.18,0.05,0.00,20.82,24.30,27.61,14.12,48.05,1024.92,2039.03,3443.77,3099.11,3555.29,599.76,605.11,0.32,0000 0000 0000 0000 000000
2018-02-11 01:40:13,0.17,0.06,0.00,20.82,24.29,27.59,14.10,48.01,1024.92,2039.05,3439.92,3096.45,3552.14,599.78,605.14,0.37,0000 0000 0000 0000 000000
2018-02-11 01:45:15,0.17,0.07,0.00,20.82,24.28,27.58,14.28,48.08,1024.88,2039.03,3436.16,3093.85,3548.88,600.35,605.68,0.43,0000 0000 0000 0000 000000
2018-02-11 01:50:16,0.17,0.08,0.00,20.83,24.27,27.57,14.09,47.87,1024.83,2039.04,3432.34,3091.27,3545.77,599.71,605.02,0.48,0000 0000 0000 0000 000000
2018-02-11 01:55:17,0.17,0.09,0.00,20.84,24.27,27.58,14.11,47.87,1024.51,2039.04,3428.44,3088.62,3542.74,600.01,605.03,0.53,0000 0000 0000 0000 000000
2018-02-11 02:00:19,0.17,0.09,0.00,20.84,24.27,27.59,14.13,47.79,1024.47,2039.07,3424.75,3086.07,3539.48,599.73,604.78,0.58,0000 0000 0000 0000 000000
2018-02-11 02:05:20,0.17,0.10,0.00,20.84,24.27,27.57,14.26,47.85,1024.44,2039.08,3420.98,3083.50,3536.42,600.14,605.15,0.63,0000 0000 0000 0000 000000
2018-02-11 02:10:21,0.17,0.11,0.00,20.84,24.27,27.56,14.07,47.73,1024.43,2039.07,3417.12,3080.95,3533.41,599.90,604.93,0.68,0000 0000 0000 0000 000000
2018-02-11 02:15:23,0.17,0.12,0.00,20.84,24.26,27.56,14.20,47.85,1024.43,2039.07,3413.32,3078.27,3530.26,599.66,604.68,0.73,0000 0000 0000 0000 000000
2018-02-11 02:20:24,0.17,0.13,0.00,20.84,24.25,27.58,14.07,47.68,1024.38,2039.05,3409.49,3075.57,3527.10,599.56,604.55,0.78,0000 0000 0000 0000 000000
2018-02-11 02:25:25,0.17,0.14,0.00,20.84,24.25,27.56,14.19,47.78,1024.26,2039.08,3405.77,3073.09,3524.06,599.89,604.80,0.83,0000 0000 0000 0000 000000
2018-02-11 02:30:27,0.16,0.15,0.00,20.83,24.25,27.57,14.12,47.78,1024.06,2039.14,3402.04,3070.59,3521.12,599.75,604.54,0.88,0000 0000 0000 0000 000000
2018-02-11 02:35:28,0.16,0.15,0.00,20.85,24.25,27.56,14.14,47.70,1024.10,2039.17,3398.50,3068.17,3518.20,600.00,604.81,0.93,0000 0000 0000 0000 000000
2018-02-11 02:40:29,0.17,0.16,0.00,20.87,24.25,27.56,14.08,47.72,1024.16,2039.18,3394.75,3065.61,3515.32,599.86,604.66,0.98,0000 0000 0000 0000 000000
2018-02-11 02:45:31,0.18,0.17,0.00,20.87,24.25,27.55,14.10,47.76,1024.23,2039.29,3391.18,3063.15,3512.35,599.77,604.77,1.03,0000 0000 0000 0000 000000
2018-02-11 02:50:32,0.16,0.18,0.00,20.87,24.25,27.55,14.17,47.80,1024.30,2039.25,3387.64,3060.62,3509.36,600.23,605.26,1.08,0000 0000 0000 0000 000000
2018-02-11 02:55:33,0.17,0.19,0.00,20.88,24.25,27.56,14.13,47.77,1024.43,2039.19,3383.84,3057.99,3506.27,599.60,604.60,1.13,0000 0000 0000 0000 000000
2018-02-11 03:00:34,0.16,0.20,0.00,20.90,24.25,27.55,14.19,47.87,1024.39,2039.27,3380.22,3055.47,3503.25,600.33,605.22,1.18,0000 0000 0000 0000 000000
2018-02-11 03:05:36,0.17,0.21,0.00,20.90,24.26,27.55,14.16,47.83,1024.40,2039.19,3376.52,3052.94,3500.26,600.05,604.97,1.23,0000 0000 0000 0000 000000
2018-02-11 03:10:38,0.16,0.21,0.00,20.92,24.27,27.55,14.14,47.90,1024.36,2039.27,3372.90,3050.43,3497.28,600.04,604.90,1.28,0000 0000 0000 0000 000000
2018-02-11 03:15:39,0.16,0.22,0.00,20.92,24.27,27.57,14.12,47.96,1024.24,2039.22,3369.45,3047.96,3494.09,599.85,604.58,1.33,0000 0000 0000 0000 000000
2018-02-11 03:20:40,0.16,0.23,0.00,20.92,24.27,27.57,14.15,47.90,1024.13,2039.08,3365.71,3045.34,3490.95,599.86,604.57,1.38,0000 0000 0000 0000 000000
2018-02-11 03:25:41,0.17,0.24,0.00,20.93,24.29,27.56,14.21,47.95,1024.01,2039.03,3361.94,3042.74,3487.88,599.96,604.59,1.43,0000 0000 0000 0000 000000
2018-02-11 03:30:43,0.18,0.25,0.00,20.92,24.30,27.58,14.09,47.92,1023.97,2039.04,3358.12,3040.15,3484.82,599.78,604.33,1.48,0000 0000 0000 0000 000000
2018-02-11 03:35:44,0.17,0.26,0.00,20.94,24.30,27.57,14.13,47.89,1023.95,2039.03,3354.32,3037.50,3481.78,600.22,604.76,1.53,0000 0000 0000 0000 000000
2018-02-11 03:40:45,0.17,0.27,0.00,20.94,24.30,27.57,14.14,47.89,1023.94,2039.03,3350.53,3034.95,3478.84,599.83,604.36,1.58,0000 0000 0000 0000 000000
2018-02-11 03:45:47,0.16,0.27,0.00,20.94,24.32,27.57,14.20,47.94,1023.94,2039.05,3346.98,3032.40,3475.68,600.37,604.69,1.63,0000 0000 0000 0000 000000
2018-02-11 03:50:48,0.17,0.28,0.00,20.97,24.32,27.57,14.14,48.00,1023.94,2039.02,3343.38,3029.79,3472.45,600.02,604.48,1.68,0000 0000 0000 0000 000000
2018-02-11 03:55:49,0.17,0.29,0.00,20.97,24.32,27.59,14.07,47.95,1023.94,2039.01,3339.66,3027.23,3469.45,599.45,603.89,1.73,0000 0000 0000 0000 000000
2018-02-11 04:00:51,0.17,0.30,0.00,20.97,24.34,27.59,14.15,48.01,1023.94,2039.01,3336.13,3024.73,3466.39,599.96,604.22,1.78,0000 0000 0000 0000 000000
2018-02-11 04:05:52,0.17,0.31,0.00,20.98,24.35,27.60,14.12,48.04,1023.94,2039.00,3332.54,3022.17,3463.22,599.58,604.04,1.83,0000 0000 0000 0000 000000
2018-02-11 04:10:53,0.16,0.32,0.00,21.02,24.35,27.61,14.10,48.04,1023.92,2039.00,3328.99,3019.73,3460.25,599.72,604.17,1.88,0000 0000 0000 0000 000000
2018-02-11 04:15:54,0.16,0.33,0.00,21.03,24.35,27.60,14.14,47.96,1023.84,2039.00,3325.45,3017.25,3457.42,599.97,604.26,1.93,0000 0000 0000 0000 000000
2018-02-11 04:20:55,0.16,0.33,0.00,21.03,24.35,27.60,14.14,47.92,1023.79,2039.00,3321.90,3014.80,3454.57,599.80,604.09,1.98,0000 0000 0000 0000 000000
2018-02-11 04:25:57,0.16,0.34,0.00,21.03,24.37,27.61,14.06,47.95,1023.60,2039.00,3318.40,3012.41,3451.80,599.92,603.89,2.03,0000 0000 0000 0000 000000
2018-02-11 04:30:58,0.16,0.35,0.00,21.02,24.37,27.65,14.14,47.98,1023.64,2039.00,3314.82,3009.95,3448.83,599.84,603.98,2.08,0000 0000 0000 0000 000000
2018-02-11 04:35:59,0.16,0.36,0.00,21.02,24.38,27.66,14.10,48.01,1023.63,2038.99,3311.16,3007.50,3445.87,599.87,604.13,2.13,0000 0000 0000 0000 000000
2018-02-11 04:41:00,0.16,0.37,0.00,21.04,24.40,27.66,14.19,48.00,1023.55,2038.98,3307.79,3005.11,3442.71,600.00,604.10,2.18,0000 0000 0000 0000 000000
2018-02-11 04:46:01,0.17,0.38,0.00,21.05,24.40,27.69,14.18,47.94,1023.58,2038.97,3304.18,3002.60,3439.66,600.75,604.76,2.23,0000 0000 0000 0000 000000
2018-02-11 04:51:03,0.16,0.39,0.00,21.08,24.41,27.68,14.20,47.87,1023.54,2038.96,3300.67,3000.19,3436.68,600.28,604.12,2.28,0000 0000 0000 0000 000000
2018-02-11 04:56:04,0.14,0.39,0.00,21.08,24.42,27.71,14.14,47.83,1023.48,2038.81,3297.18,2997.70,3433.72,600.36,604.34,2.33,0000 0000 0000 0000 000000
2018-02-11 05:01:05,0.16,0.40,0.00,21.09,24.42,27.70,14.09,47.84,1023.49,2038.67,3293.57,2995.30,3430.83,600.02,603.97,2.38,0000 0000 0000 0000 000000
2018-02-11 05:06:06,0.14,0.41,0.00,21.10,24.44,27.71,14.15,47.77,1023.58,2038.56,3290.10,2992.90,3427.88,600.22,604.28,2.43,0000 0000 0000 0000 000000
2018-02-11 05:11:08,0.14,0.42,0.00,21.12,24.45,27.70,14.16,47.81,1023.68,2038.25,3286.58,2990.47,3425.04,600.36,604.32,2.48,0000 0000 0000 0000 000000
2018-02-11 05:16:09,0.17,0.43,0.00,21.13,24.45,27.73,14.15,47.79,1023.52,2038.23,3283.00,2988.04,3422.14,600.00,603.89,2.53,0000 0000 0000 0000 000000
2018-02-11 05:21:10,0.15,0.43,0.00,21.16,24.45,27.73,14.14,47.96,1023.51,2038.12,3279.46,2985.54,3419.16,600.09,603.96,2.58,0000 0000 0000 0000 000000
2018-02-11 05:26:12,0.16,0.44,0.00,21.17,24.45,27.75,14.09,47.83,1023.49,2038.16,3276.04,2983.18,3416.25,600.30,603.87,2.63,0000 0000 0000 0000 000000
2018-02-11 05:31:13,0.16,0.45,0.00,21.15,24.47,27.76,14.11,47.73,1023.48,2038.17,3272.64,2980.76,3413.36,599.96,603.79,2.68,0000 0000 0000 0000 000000
2018-02-11 05:36:14,0.16,0.46,0.00,21.16,24.47,27.75,14.09,47.70,1023.47,2038.09,3269.12,2978.28,3410.36,599.54,603.35,2.74,0000 0000 0000 0000 000000
2018-02-11 05:41:16,0.17,0.47,0.00,21.17,24.47,27.78,14.12,47.65,1023.45,2038.05,3265.57,2975.83,3407.41,600.07,603.86,2.79,0000 0000 0000 0000 000000
2018-02-11 05:46:17,0.16,0.48,0.00,21.17,24.47,27.78,14.07,47.69,1023.46,2038.02,3262.15,2973.33,3404.57,599.88,603.72,2.84,0000 0000 0000 0000 000000
2018-02-11 05:51:18,0.17,0.48,0.00,21.17,24.47,27.78,14.10,47.67,1023.46,2038.02,3258.54,2970.86,3401.48,599.71,603.49,2.89,0000 0000 0000 0000 000000
2018-02-11 05:56:20,0.17,0.49,0.00,21.17,24.48,27.78,14.18,47.87,1023.46,2038.01,3254.98,2968.44,3398.62,599.99,603.77,2.94,0000 0000 0000 0000 000000
2018-02-11 06:01:21,0.16,0.50,0.00,21.17,24.48,27.78,14.13,47.77,1023.52,2038.01,3251.53,2966.05,3395.75,599.70,603.65,2.99,0000 0000 0000 0000 000000
2018-02-11 06:06:22,0.17,0.51,0.00,21.19,24.49,27.78,14.06,47.77,1023.55,2038.00,3247.93,2963.54,3392.82,599.68,603.47,3.04,0000 0000 0000 0000 000000
2018-02-11 06:11:23,0.17,0.52,0.00,21.19,24.49,27.79,14.15,47.85,1023.51,2038.00,3244.39,2961.02,3389.95,600.07,603.86,3.09,0000 0000 0000 0000 000000
2018-02-11 06:16:24,0.16,0.53,0.00,21.18,24.49,27.79,14.08,47.72,1023.51,2038.00,3240.90,2958.62,3387.10,599.80,603.59,3.14,0000 0000 0000 0000 000000
2018-02-11 06:21:26,0.17,0.54,0.00,21.17,24.49,27.80,14.13,47.85,1023.79,2038.00,3237.34,2956.19,3384.24,599.90,603.85,3.19,0000 0000 0000 0000 000000
2018-02-11 06:26:27,0.16,0.54,0.00,21.17,24.50,27.80,14.20,47.92,1023.72,2038.00,3233.86,2953.77,3381.38,599.98,603.96,3.24,0000 0000 0000 0000 000000
2018-02-11 06:31:28,0.16,0.55,0.00,21.17,24.50,27.80,14.18,47.83,1023.72,2038.00,3230.47,2951.37,3378.50,600.19,604.17,3.29,0000 0000 0000 0000 000000
2018-02-11 06:36:29,0.16,0.56,0.00,21.15,24.50,27.82,14.14,47.78,1023.85,2038.00,3226.96,2948.99,3375.57,600.35,604.39,3.34,0000 0000 0000 0000 000000
2018-02-11 06:41:30,0.16,0.57,0.00,21.14,24.50,27.82,14.17,47.80,1023.87,2038.00,3223.38,2946.57,3372.84,600.14,604.24,3.39,0000 0000 0000 0000 000000
2018-02-11 06:46:32,0.17,0.58,0.00,21.15,24.50,27.83,14.13,47.79,1023.84,2038.00,3219.93,2944.23,3369.99,600.08,604.18,3.44,0000 0000 0000 0000 000000
2018-02-11 06:51:33,0.17,0.59,0.00,21.13,24.50,27.82,14.19,47.85,1023.59,2038.00,3216.32,2941.85,3367.14,599.71,603.64,3.49,0000 0000 0000 0000 000000
2018-02-11 06:56:34,0.16,0.60,0.00,21.12,24.50,27.83,14.08,47.88,1023.46,2038.00,3212.81,2939.44,3364.26,600.09,603.97,3.54,0000 0000 0000 0000 000000
2018-02-11 07:01:35,0.18,0.60,0.00,21.14,24.50,27.81,14.10,47.87,1023.47,2038.00,3209.26,2936.99,3361.31,600.12,604.05,3.59,0000 0000 0000 0000 000000
2018-02-11 07:06:36,0.16,0.61,0.00,21.14,24.50,27.81,14.15,47.78,1023.52,2038.00,3205.90,2934.52,3358.20,600.19,604.08,3.64,0000 0000 0000 0000 000000
2018-02-11 07:11:38,0.17,0.62,0.00,21.13,24.51,27.82,14.14,47.88,1023.47,2038.00,3202.48,2932.18,3355.31,600.05,603.99,3.69,0000 0000 0000 0000 000000
2018-02-11 07:16:39,0.16,0.63,0.00,21.13,24.52,27.83,14.10,48.00,1023.47,2038.00,3199.21,2929.86,3352.50,599.50,603.35,3.74,0000 0000 0000 0000 000000
2018-02-11 07:21:40,0.16,0.64,0.00,21.15,24.52,27.84,14.16,47.78,1023.48,2038.00,3195.96,2927.55,3349.69,600.78,604.60,3.79,0000 0000 0000 0000 000000
2018-02-11 07:26:41,0.16,0.65,0.00,21.13,24.52,27.83,14.10,47.90,1023.50,2038.00,3192.64,2925.26,3346.90,599.62,603.35,3.84,0000 0000 0000 0000 000000
2018-02-11 07:31:43,0.16,0.65,0.00,21.12,24.52,27.82,14.07,47.88,1023.57,2038.00,3189.20,2923.12,3344.36,599.89,603.83,3.89,0000 0000 0000 0000 000000
2018-02-11 07:36:44,0.15,0.66,0.00,21.12,24.52,27.84,14.15,47.79,1023.53,2038.00,3185.90,2920.95,3341.73,599.69,603.61,3.94,0000 0000 0000 0000 000000
2018-02-11 07:41:45,0.16,0.67,0.00,21.11,24.52,27.83,14.10,47.64,1023.50,2037.99,3182.53,2918.73,3339.14,600.02,604.05,3.99,0000 0000 0000 0000 000000
2018-02-11 07:46:47,0.16,0.68,0.00,21.11,24.52,27.83,14.13,47.84,1023.53,2037.99,3179.11,2916.57,3336.55,599.64,603.66,4.04,0000 0000 0000 0000 000000
2018-02-11 07:51:48,0.16,0.69,0.00,21.11,24.52,27.81,14.15,47.88,1023.47,2037.99,3175.77,2914.37,3333.79,599.86,603.79,4.09,0000 0000 0000 0000 000000
2018-02-11 07:56:50,0.15,0.69,0.00,21.09,24.52,27.82,14.14,47.88,1023.47,2037.99,3172.68,2912.22,3331.01,599.56,603.50,4.14,0000 0000 0000 0000 000000
2018-02-11 08:01:51,0.17,0.70,0.00,21.09,24.52,27.83,14.19,47.83,1023.46,2037.99,3169.37,2909.82,3328.14,600.30,604.19,4.19,0000 0000 0000 0000 000000
2018-02-11 08:06:52,0.15,0.71,0.00,21.08,24.52,27.82,14.14,47.88,1023.45,2037.99,3166.07,2907.63,3325.53,599.96,603.95,4.24,0000 0000 0000 0000 000000
2018-02-11 08:11:54,0.15,0.72,0.00,21.08,24.52,27.82,14.23,47.70,1023.47,2037.99,3162.82,2905.51,3322.92,600.59,604.57,4.29,0000 0000 0000 0000 000000
2018-02-11 08:16:55,0.15,0.73,0.00,21.07,24.52,27.83,14.13,47.80,1023.47,2037.98,3159.64,2903.38,3320.25,599.83,603.79,4.34,0000 0000 0000 0000 000000
2018-02-11 08:21:56,0.15,0.73,0.00,21.04,24.52,27.84,14.18,47.83,1023.47,2037.98,3156.33,2901.28,3317.64,600.08,604.22,4.39,0000 0000 0000 0000 000000
2018-02-11 08:26:58,0.16,0.74,0.00,21.05,24.52,27.82,14.10,47.82,1023.49,2037.98,3153.04,2899.12,3315.11,599.67,603.68,4.44,0000 0000 0000 0000 000000
2018-02-11 08:31:59,0.14,0.75,0.00,21.03,24.52,27.81,14.14,47.91,1023.48,2037.99,3150.05,2897.10,3312.56,600.20,604.26,4.49,0000 0000 0000 0000 000000
2018-02-11 08:37:00,0.15,0.76,0.00,21.03,24.52,27.82,14.15,47.78,1023.61,2037.98,3147.02,2895.05,3309.96,599.82,603.93,4.54,0000 0000 0000 0000 000000
2018-02-11 08:42:01,0.15,0.77,0.00,21.02,24.52,27.81,14.23,47.88,1023.62,2037.95,3143.98,2892.97,3307.31,600.05,604.25,4.59,0000 0000 0000 0000 000000
2018-02-11 08:47:03,0.15,0.77,0.00,21.02,24.52,27.80,14.15,47.74,1023.65,2037.93,3140.71,2890.89,3304.80,600.02,604.18,4.64,0000 0000 0000 0000 000000
2018-02-11 08:52:04,0.14,0.78,0.00,21.02,24.51,27.80,14.15,47.86,1023.59,2037.96,3137.54,2888.86,3302.43,600.18,604.35,4.69,0000 0000 0000 0000 000000
2018-02-11 08:57:05,0.15,0.79,0.00,21.01,24.50,27.80,14.16,47.96,1023.49,2037.96,3134.67,2886.86,3299.90,599.74,603.87,4.74,0000 0000 0000 0000 000000
2018-02-11 09:02:06,0.15,0.80,0.00,21.01,24.50,27.80,14.11,47.87,1023.50,2037.97,3131.67,2884.81,3297.44,599.79,603.89,4.79,0000 0000 0000 0000 000000
2018-02-11 09:07:08,0.15,0.81,0.00,20.99,24.50,27.80,14.17,47.79,1023.49,2037.99,3128.39,2882.86,3295.20,600.18,604.34,4.84,0000 0000 0000 0000 000000
2018-02-11 09:12:10,0.15,0.81,0.00,21.00,24.50,27.83,14.19,47.86,1023.49,2037.99,3125.22,2880.78,3292.75,600.42,604.57,4.89,0000 0000 0000 0000 000000
2018-02-11 09:17:11,0.14,0.82,0.00,21.01,24.50,27.79,14.15,48.09,1023.48,2037.99,3122.26,2878.89,3290.14,599.80,604.06,4.94,0000 0000 0000 0000 000000
2018-02-11 09:22:12,0.16,0.83,0.00,21.00,24.50,27.77,14.14,48.13,1023.46,2037.99,3119.04,2876.80,3287.54,599.84,604.07,4.99,0000 0000 0000 0000 000000
2018-02-11 09:27:14,0.15,0.84,0.00,20.99,24.50,27.80,14.19,48.00,1023.45,2037.99,3115.88,2874.73,3284.94,600.13,604.23,5.05,0000 0000 0000 0000 000000
2018-02-11 09:32:15,0.15,0.84,0.00,20.97,24.50,27.77,14.18,47.95,1023.45,2037.99,3112.81,2872.69,3282.34,600.09,604.30,5.10,0000 0000 0000 0000 000000
2018-02-11 09:37:16,0.14,0.85,0.00,20.98,24.50,27.77,14.08,47.92,1023.45,2037.98,3110.00,2870.72,3279.93,599.66,603.81,5.15,0000 0000 0000 0000 000000
2018-02-11 09:42:18,0.14,0.86,0.00,20.97,24.50,27.76,14.21,47.95,1023.44,2037.97,3107.19,2868.80,3277.56,599.94,604.17,5.20,0000 0000 0000 0000 000000
2018-02-11 09:47:19,0.15,0.87,0.00,20.97,24.49,27.76,14.20,47.98,1023.36,2037.98,3104.21,2866.84,3275.24,600.26,604.42,5.25,0000 0000 0000 0000 000000
2018-02-11 09:52:20,0.14,0.87,0.00,20.97,24.48,27.75,14.10,48.02,1023.41,2037.98,3101.22,2864.91,3272.95,599.88,604.17,5.30,0000 0000 0000 0000 000000
2018-02-11 09:57:22,0.14,0.88,0.00,20.95,24.47,27.74,14.13,48.05,1023.36,2037.98,3098.25,2862.99,3270.58,600.07,604.24,5.35,0000 0000 0000 0000 000000
2018-02-11 10:02:23,0.15,0.89,0.00,20.94,24.47,27.74,14.13,48.13,1023.42,2037.99,3095.47,2860.96,3268.03,599.92,604.14,5.40,0000 0000 0000 0000 000000
2018-02-11 10:07:24,0.14,0.90,0.00,20.92,24.47,27.73,14.22,48.05,1023.31,2037.98,3092.58,2859.07,3265.64,600.32,604.38,5.45,0000 0000 0000 0000 000000
2018-02-11 10:12:25,0.13,0.90,0.00,20.92,24.47,27.75,14.11,48.08,1023.09,2037.98,3089.91,2857.27,3263.58,599.89,604.00,5.50,0000 0000 0000 0000 000000
2018-02-11 10:17:27,0.14,0.91,0.00,20.91,24.47,27.72,14.12,48.03,1022.99,2037.99,3087.19,2855.45,3261.47,599.66,603.70,5.55,0000 0000 0000 0000 000000
2018-02-11 10:22:28,0.13,0.92,0.00,20.91,24.47,27.71,14.19,47.98,1022.99,2037.97,3084.57,2853.62,3259.30,600.03,603.99,5.60,0000 0000 0000 0000 000000
2018-02-11 10:27:29,0.14,0.92,0.00,20.91,24.46,27.72,14.14,48.05,1022.97,2037.98,3082.02,2851.85,3257.11,599.96,603.94,5.65,0000 0000 0000 0000 000000
2018-02-11 10:32:31,0.12,0.93,0.00,20.92,24.45,27.72,14.17,48.00,1022.99,2037.98,3079.39,2850.11,3255.06,599.86,603.56,5.70,0000 0000 0000 0000 000000
2018-02-11 10:37:32,0.12,0.94,0.00,20.90,24.45,27.73,14.16,48.00,1022.98,2037.98,3076.85,2848.42,3253.00,599.86,604.03,5.75,0000 0000 0000 0000 000000
2018-02-11 10:42:33,0.14,0.94,0.00,20.90,24.45,27.73,14.22,47.98,1022.97,2037.99,3074.04,2846.58,3250.91,600.21,604.25,5.80,0000 0000 0000 0000 000000
2018-02-11 10:47:34,0.12,0.95,0.00,20.89,24.45,27.72,14.11,47.98,1022.99,2037.99,3071.48,2844.82,3248.73,599.78,603.77,5.85,0000 0000 0000 0000 000000
2018-02-11 10:52:36,0.12,0.96,0.00,20.88,24.44,27.71,14.09,47.98,1022.98,2037.99,3069.12,2843.14,3246.61,599.78,603.83,5.90,0000 0000 0000 0000 000000
2018-02-11 10:57:37,0.12,0.96,0.00,20.87,24.44,27.72,14.10,48.05,1022.96,2037.99,3066.60,2841.43,3244.54,600.07,604.15,5.95,0000 0000 0000 0000 000000
2018-02-11 11:02:38,0.13,0.97,0.00,20.89,24.43,27.71,14.18,48.04,1022.97,2037.99,3064.07,2839.65,3242.35,600.17,604.24,6.00,0000 0000 0000 0000 000000
2018-02-11 11:07:40,0.13,0.98,0.00,20.87,24.42,27.72,14.12,47.95,1022.96,2037.99,3061.49,2837.83,3240.18,599.83,603.89,6.05,0000 0000 0000 0000 000000
2018-02-11 11:12:41,0.12,0.98,0.00,20.89,24.42,27.72,14.18,48.02,1022.96,2037.99,3058.94,2836.16,3238.13,600.26,604.34,6.10,0000 0000 0000 0000 000000
2018-02-11 11:17:42,0.13,0.99,0.00,20.90,24.42,27.71,14.18,47.98,1022.96,2037.99,3056.25,2834.45,3236.13,600.05,604.05,6.15,0000 0000 0000 0000 000000
2018-02-11 11:22:44,0.13,1.00,0.00,20.88,24.42,27.72,14.09,47.92,1022.80,2037.99,3053.75,2832.72,3234.06,599.75,603.68,6.20,0000 0000 0000 0000 000000
2018-02-11 11:27:45,0.12,1.00,0.00,20.87,24.41,27.69,14.11,47.91,1022.59,2037.99,3051.41,2831.06,3231.93,599.87,603.82,6.25,0000 0000 0000 0000 000000
2018-02-11 11:32:46,0.12,1.01,0.00,20.87,24.40,27.67,14.18,47.97,1022.53,2037.99,3048.87,2829.40,3229.92,600.22,604.06,6.30,0000 0000 0000 0000 000000
2018-02-11 11:37:47,0.13,1.01,0.00,20.85,24.40,27.68,14.14,48.00,1022.51,2037.99,3046.34,2827.66,3227.81,599.97,603.98,6.35,0000 0000 0000 0000 000000
2018-02-11 11:42:49,0.12,1.02,0.00,20.85,24.40,27.68,14.12,47.99,1022.48,2037.99,3043.82,2825.98,3225.89,599.92,603.78,6.40,0000 0000 0000 0000 000000
2018-02-11 11:47:50,0.12,1.03,0.00,20.84,24.40,27.69,14.15,47.91,1022.49,2037.99,3041.37,2824.39,3223.96,600.07,603.92,6.45,0000 0000 0000 0000 000000
2018-02-11 11:52:51,0.12,1.03,0.00,20.84,24.39,27.67,14.16,47.96,1022.50,2037.99,3038.98,2822.74,3222.03,600.06,603.93,6.50,0000 0000 0000 0000 000000
2018-02-11 11:57:52,0.12,1.04,0.00,20.84,24.38,27.68,14.13,47.93,1022.48,2037.99,3036.57,2821.16,3220.08,599.81,603.60,6.55,0000 0000 0000 0000 000000
2018-02-11 12:02:53,0.12,1.05,0.00,20.83,24.37,27.67,14.16,48.00,1022.49,2038.00,3034.11,2819.56,3218.21,600.04,603.94,6.60,0000 0000 0000 0000 000000
2018-02-11 12:07:54,0.12,1.05,0.00,20.83,24.37,27.66,14.16,48.04,1022.48,2038.00,3031.54,2817.90,3216.35,600.31,604.14,6.65,0000 0000 0000 0000 000000
2018-02-11 12:12:55,0.12,1.06,0.00,20.82,24.37,27.63,14.13,48.11,1022.48,2038.01,3029.10,2816.35,3214.39,599.94,603.81,6.70,0000 0000 0000 0000 000000
2018-02-11 12:17:57,0.13,1.06,0.00,20.82,24.37,27.63,14.16,48.06,1022.44,2038.02,3026.63,2814.72,3212.36,599.90,603.90,6.75,0000 0000 0000 0000 000000
2018-02-11 12:22:58,0.12,1.07,0.00,20.82,24.37,27.63,14.13,48.09,1022.26,2038.03,3024.13,2813.06,3210.30,599.94,603.74,6.80,0000 0000 0000 0000 000000
2018-02-11 12:27:59,0.13,1.08,0.00,20.82,24.37,27.62,14.21,48.14,1022.08,2038.04,3021.59,2811.40,3208.28,599.92,603.49,6.85,0000 0000 0000 0000 000000
2018-02-11 12:33:00,0.13,1.09,0.00,20.82,24.37,27.64,14.19,48.16,1022.01,2038.03,3019.26,2809.72,3206.19,599.95,603.70,6.90,0000 0000 0000 0000 000000
2018-02-11 12:38:01,0.11,1.09,0.00,20.82,24.37,27.65,14.06,48.18,1022.04,2038.02,3016.85,2808.16,3204.24,599.88,603.59,6.95,0000 0000 0000 0000 000000
2018-02-11 12:43:02,0.11,1.10,0.00,20.81,24.37,27.64,14.16,48.21,1022.00,2038.02,3014.81,2806.64,3202.34,600.02,603.70,7.00,0000 0000 0000 0000 000000
2018-02-11 12:48:04,0.09,1.10,0.00,20.80,24.37,27.65,14.17,48.12,1022.02,2038.00,3012.94,2805.33,3200.57,600.08,603.78,7.05,0000 0000 0000 0000 000000
2018-02-11 12:53:05,0.09,1.11,0.00,20.80,24.36,27.62,14.13,48.24,1022.02,2038.00,3011.19,2803.94,3198.95,599.99,603.61,7.10,0000 0000 0000 0000 000000
2018-02-11 12:58:06,0.11,1.11,0.00,20.80,24.35,27.61,14.06,48.11,1021.99,2038.00,3009.21,2802.59,3197.37,599.68,603.45,7.15,0000 0000 0000 0000 000000
2018-02-11 13:03:08,0.10,1.12,0.00,20.81,24.35,27.63,14.14,48.20,1021.99,2038.00,3007.23,2801.18,3195.72,599.66,603.37,7.20,0000 0000 0000 0000 000000